Regional Weather Roundup
Issued by NWS Cleveland, OH

Home | Current Version | Previous Version | Text Only | Print | Product List | Glossary Off
Versions: 1 2 3 4 5 6 7 8 9 10 11 12 13 14 15 16 17 18 19 20 21 22 23 24 25 26 27 28 29 30 31 32 33 34 35 36 37 38 39 40 41 42 43 44 45 46 47 48 49 50

000
ASUS41 KCLE 241910
RWRCLE
OHIO REGIONAL WEATHER ROUNDUP
NATIONAL WEATHER SERVICE CLEVELAND, OH
300 PM EDT THU APR 24 2014

NOTE: "FAIR" INDICATES FEW OR NO CLOUDS BELOW 12,000 FEET WITH NO
SIGNIFICANT WEATHER AND/OR OBSTRUCTIONS TO VISIBILITY.

OHZ001>008-015>018-024>027-034-035-043-044-242000-
   NORTHWEST OHIO

CITY           SKY/WX    TMP DP  RH WIND       PRES   REMARKS
DEFIANCE       CLOUDY    59  20  22 SE10      30.03F
FINDLAY        MOSUNNY   58  21  24 E13       30.03F
TOLEDO EXPRESS PTSUNNY   55  19  24 E10       30.06F
TOLEDO EXEC    PTSUNNY   55  24  30 E10G18    30.08F
LIMA           MOSUNNY   60  23  24 SE12G18   30.01F
$$

OHZ009>014-019>023-028>033-038-089-242000-
   NORTHEAST OHIO

CITY           SKY/WX    TMP DP  RH WIND       PRES   REMARKS
CLE-HOPKINS    PTSUNNY   54  22  28 NE15      30.10F
CLE-LAKEFRONT  MOSUNNY   47  34  60 NE14      30.08F
CUY CO. ARPT   PTSUNNY   54  28  37 N14       30.11F
LORAIN-ELYRIA  PTSUNNY   58  18  21 VRB6      30.06F
ASHTABULA      SUNNY     52  20  28 N8        30.10F
AKRON-CANTON   PTSUNNY   56  16  20 VRB6      30.07F
WOOSTER        MOSUNNY   55  21  26 E12G17    30.05F
MANSFIELD      MOSUNNY   56  21  25 E9        30.04F
YOUNGSTOWN     MOSUNNY   56  18  22 W6        30.07F
$$

OHZ042-051>053-060>062-070>072-077>081-242000-
  SOUTHWEST OHIO

CITY           SKY/WX    TMP DP  RH WIND       PRES   REMARKS
CINC-COVINGTON PTSUNNY   63  32  31 SE12G18   29.97F
CINC-LUNKEN    MOSUNNY   61  26  26 E7        29.99F
HAMILTON       MOSUNNY   64  27  24 VRB6      29.99F
DAYTON         PTSUNNY   61  21  21 E12G21    29.99F
WRIGHT-PAT AFB PTSUNNY   62  20  20 SE13      29.99F
DAYTON GENERAL MOSUNNY   61  25  25 E12       29.98F
WILMINGTON     MOSUNNY   61  18  18 SE10      29.99F
$$

OHZ036-037-039>041-045>050-054>059-063>069-073>076-082>088-242000-
  CENTRAL AND SOUTHEAST OHIO

CITY           SKY/WX    TMP DP  RH WIND       PRES   REMARKS
COLUMBUS       PTSUNNY   59  13  16 SE6       30.03F
OSU AIRPORT    PTSUNNY   58  18  21 E10       30.02F
BOLTON FIELD   MOSUNNY   59  23  25 E12       30.03F
RICKENBACK AFB PTSUNNY   62   1   8 E9        30.02F
NEWARK         SUNNY     59  19  21 E6        30.03F
MARION         PTSUNNY   58  22  24 SE12G17   30.03F
LANCASTER      PTSUNNY   60  19  20 SE10G16   30.03F
ZANESVILLE     SUNNY     58  21  24 E8        30.04F
NEW PHILLY     SUNNY     58  18  21 VRB6      30.05F
$$



USA.gov is the U.S. government's official web portal to all federal, state and local government web resources and services.